Weather History for KAQW - January, 2012

Change the Weather History Date:

Friday, January 27, 2012

  Actual Average (WUND) Record (WUND)
Temperature  
Mean Temperature 38 °F -  
Max Temperature 42 °F - - (-1)
Min Temperature 34 °F - - (-1)
Degree Days  
Heating Degree Days 27    
Moisture  
Dew Point 32 °F    
Average Humidity 80    
Maximum Humidity 89    
Minimum Humidity 67    
Precipitation  
Precipitation 1.06 in - - ()
Sea Level Pressure  
Sea Level Pressure 29.55 in    
Wind  
Wind Speed 11 mph (East)    
Max Wind Speed 21 mph    
Max Gust Speed 33 mph    
Visibility 7 miles    
Events Rain    
Averages and records for this station are not official NWS values.
T = Trace of Precipitation, MM = Missing Value Source: NWS Daily Summary

Daily Weather History Graph

Daily Weather History Graph

Search for Another Location

Airport or City:

Trip Planner

Search our weather history database for the weather conditions in past years. The results will help you decide how hot, cold, wet, or windy it might be!

Date:

Astronomy

Jan. 27, 2012 Rise Set
Actual Time 7:12 AM EST 4:58 PM EST
Civil Twilight 6:42 AM EST 5:29 PM EST
Nautical Twilight 6:07 AM EST 6:03 PM EST
Astronomical Twilight 5:34 AM EST 6:36 PM EST
Moon 8:58 AM EST (1/27) 9:55 PM EST (1/27)
Length of Visible Light 10h 47m
Length of Day
9h 46m
Waxing Crescent, 19% of the Moon is Illuminated
Jan 27
Waxing Crescent
Jan 30
First Quarter
Feb 7
Full
Feb 14
Last Quarter
Feb 21
New

Hourly Weather History & Observations

Time (EST) Temp. Windchill Dew Point Humidity Pressure Visibility Wind Dir Wind Speed Gust Speed Precip Events Conditions
12:52 AM 34.0 °F 26.6 °F 30.0 °F 85% 29.85 in 5.0 mi ESE 9.2 mph - 0.08 in Rain Light Rain
1:52 AM 35.1 °F 27.9 °F 30.0 °F 82% 29.81 in 7.0 mi East 9.2 mph - 0.06 in Rain Light Rain
2:52 AM 35.1 °F 29.3 °F 30.0 °F 82% 29.79 in 3.0 mi ENE 6.9 mph 18.4 mph 0.13 in Rain Rain
3:52 AM 35.1 °F 27.9 °F 30.0 °F 82% 29.75 in 5.0 mi East 9.2 mph 16.1 mph 0.08 in Rain Light Rain
4:52 AM 35.1 °F 26.9 °F 30.9 °F 85% 29.71 in 6.0 mi East 11.5 mph 19.6 mph 0.09 in Rain Light Rain
5:52 AM 36.0 °F 27.5 °F 30.9 °F 82% 29.67 in 7.0 mi East 12.7 mph 21.9 mph 0.05 in Rain Light Rain
6:52 AM 37.0 °F 26.4 °F 30.9 °F 79% 29.63 in 5.0 mi ESE 20.7 mph - 0.12 in Rain Light Rain
7:52 AM 37.9 °F 28.5 °F 32.0 °F 79% 29.57 in 8.0 mi East 17.3 mph 27.6 mph 0.07 in Rain Light Rain
8:52 AM 37.9 °F 29.6 °F 33.1 °F 83% 29.55 in 3.0 mi East 13.8 mph 23.0 mph 0.22 in Rain Rain
9:52 AM 37.9 °F 30.0 °F 34.0 °F 86% 29.50 in 2.0 mi ENE 12.7 mph 20.7 mph 0.12 in Rain Light Rain
10:02 AM 37.4 °F 31.4 °F 33.8 °F 87% 29.49 in 8.0 mi East 8.1 mph 18.4 mph 0.01 in Rain Light Rain
10:52 AM 37.9 °F 29.2 °F 34.0 °F 86% 29.48 in 5.0 mi East 15.0 mph 20.7 mph 0.01 in   Overcast
11:52 AM 39.0 °F 33.4 °F 35.1 °F 86% 29.42 in 10.0 mi East 8.1 mph 19.6 mph 0.00 in Rain Light Rain
12:52 PM 41.0 °F 34.3 °F 36.0 °F 82% 29.37 in 10.0 mi ESE 11.5 mph - 0.00 in   Overcast
1:52 PM 39.9 °F 32.9 °F 35.1 °F 83% 29.33 in 10.0 mi East 11.5 mph - N/A   Overcast
2:52 PM 39.9 °F 33.4 °F 36.0 °F 86% 29.33 in 10.0 mi East 10.4 mph - N/A   Overcast
3:52 PM 39.9 °F 36.7 °F 37.0 °F 89% 29.32 in 3.0 mi SE 4.6 mph - 0.01 in Rain Light Rain
4:01 PM 39.2 °F 35.9 °F 35.6 °F 87% 29.35 in 2.5 mi Variable 4.6 mph - 0.01 in Rain Light Rain
4:11 PM 41.0 °F 34.3 °F 37.4 °F 87% 29.37 in 6.0 mi West 11.5 mph 17.3 mph 0.01 in Rain Light Rain
4:21 PM 42.8 °F 34.0 °F 37.4 °F 81% 29.38 in 10.0 mi West 20.7 mph 33.4 mph 0.01 in   Overcast
4:52 PM 41.0 °F 35.8 °F 34.0 °F 76% 29.45 in 10.0 mi NW 8.1 mph 20.7 mph 0.02 in Rain Light Rain
5:52 PM 37.9 °F 32.7 °F 30.0 °F 73% 29.51 in 10.0 mi Variable 6.9 mph - 0.00 in   Overcast
6:52 PM 37.0 °F 28.9 °F 27.0 °F 67% 29.54 in 10.0 mi West 12.7 mph 23.0 mph N/A   Overcast
7:52 PM 37.0 °F 27.4 °F 27.0 °F 67% 29.59 in 10.0 mi West 17.3 mph 32.2 mph N/A   Overcast
8:52 PM 37.0 °F 27.4 °F 28.0 °F 70% 29.62 in 10.0 mi West 17.3 mph 33.4 mph N/A   Overcast
9:52 PM 37.0 °F 30.4 °F 27.0 °F 67% 29.67 in 10.0 mi West 9.2 mph 25.3 mph N/A   Overcast
10:52 PM 36.0 °F 25.3 °F 27.0 °F 70% 29.71 in 10.0 mi West 19.6 mph 26.5 mph N/A   Overcast
11:52 PM 36.0 °F 26.7 °F 26.1 °F 67% 29.75 in 10.0 mi West 15.0 mph 24.2 mph N/A   Overcast